Location: Taukkyan
(23.1052°N, 94.0030°E)
Time: 11:40:31
(UTC+00:00)

Cosmos 1484 Rocket - Pass Details

Date: 06 July 2020
Orbit: 505 x 560 km, 97.4° (Epoch: 14 August)

Event Time Altitude Azimuth Distance (km) Brightness Sun altitude
Rises 22:26:55 0° 6° (N) 2,694 6.9 -8.5°
Reaches altitude 10° 22:29:04 10° 3° (N) 1,791 5.9 -8.0°
Maximum altitude 22:32:53 63° 283° (WNW) 594 2.8 -7.3°
Drops below altitude 10° 22:36:37 10° 202° (SSW) 1,751 4.9 -6.5°
Sets 22:38:42 0° 198° (SSW) 2,627 5.9 -6.1°
